Regional Weather Roundup
Issued by NWS

Home | Current Version | Previous Version | Graphics & Text | Print | Product List | Glossary On
Versions: 1 2 3 4 5 6 7 8 9 10 11 12 13 14 15 16 17 18 19 20 21 22 23 24 25 26 27 28 29 30 31 32 33 34 35 36 37 38 39 40 41 42 43 44 45 46 47 48 49 50
000
ASUS43 KMKX 162311
RWRWI

WISCONSIN REGIONAL WEATHER ROUNDUP
NATIONAL WEATHER SERVICE MILWAUKEE/SULLIVAN WI
600 PM CDT WED AUG 16 2017

NOTE: "FAIR" INDICATES FEW OR NO CLOUDS BELOW 12,000 FEET WITH NO
SIGNIFICANT WEATHER AND/OR OBSTRUCTIONS TO VISIBILITY.

WIZ001-002-006>008-014>016-023>028-170000-
NORTHWEST WISCONSIN

CITY           SKY/WX    TMP DP  RH WIND       PRES   REMARKS
SUPERIOR ARPT    N/A     62  61  97 NE13G20   29.87F
ASHLAND        PTSUNNY   69  61  75 NE10      29.88F
HAYWARD        CLOUDY    75  63  66 E7        29.86F
SIREN          CLOUDY    74  65  74 E5        29.82F
CUMBERLAND     CLOUDY    73  63  68 E7        29.83F
RICE LAKE      CLOUDY    75  65  71 E9        29.84F
CHETEK         CLOUDY    76  67  74 MISG      29.83F
LADYSMITH      CLOUDY    76  64  67 E9        29.88F
EAU CLAIRE     CLOUDY    78  65  63 E14       29.79F HX  80
MENOMONIE      CLOUDY    78  67  68 E10       29.79F HX  80
NEW RICHMOND   CLOUDY    75  66  72 E10       29.78F
OSCEOLA        PTSUNNY   76  68  75 E9        29.80F
$$

WIZ003>005-009-010-017-018-170000-
NORTH CENTRAL WISCONSIN

CITY           SKY/WX    TMP DP  RH WIND       PRES   REMARKS
MANITOWISH WTR CLOUDY    72  61  69 SE7       29.92F
ARBOR VITAE    MOSUNNY   74  61  62 SE9       29.92F
WOODRUFF       MOSUNNY   74  61  62 SE9       29.92F
RHINELANDER    MOSUNNY   71  59  65 E10       29.94F
EAGLE RIVER    CLOUDY    72  56  56 SE6       29.94F
LAND O LAKES   MOSUNNY   73  55  53 SE8       29.97S
PHILLIPS       CLOUDY    73  62  69 E9        29.89F
TOMAHAWK         N/A     72  60  66 E5        29.92F
MEDFORD        CLOUDY    72  64  74 E9        29.88F
MERRILL        PTSUNNY   73  63  68 SE10      29.92F
$$

WIZ029-030-035-036-043>047-170000-
CENTRAL WISCONSIN

CITY           SKY/WX    TMP DP  RH WIND       PRES   REMARKS
WAUSAU         CLOUDY    73  62  68 E12       29.88F
MOSINEE        PTSUNNY   73  64  73 E9        29.91F
MARSHFIELD     CLOUDY    75  63  66 E10       29.86F
STEVENS POINT  PTSUNNY   74  63  67 E13       29.89F
WAUPACA        CLOUDY    78  64  61 E10       29.89F HX  80
WAUTOMA        CLOUDY    77  67  71 E15       29.86
WISC RAPIDS    MOSUNNY   77  65  66 E9        29.87F
CAMP DOUGLAS   PTSUNNY   79  68  69 E12       29.82F HX  81
$$

WIZ011>013-019>022-031-037>040-048>050-170000-
NORTHEAST WISCONSIN

CITY           SKY/WX    TMP DP  RH WIND       PRES   REMARKS
ANTIGO         MOSUNNY   70  60  69 SE10      29.95S
SHAWANO        PTSUNNY   74  63  67 E8        29.93F
OCONTO         CLOUDY    72  62  71 E8        29.94F
STURGEON BAY   NOT AVBL
GREEN BAY      MOSUNNY   74  65  73 E9        29.92F
MANITOWOC      CLOUDY    71  61  70 E8        29.94F
APPLETON       PTSUNNY   75  59  57 E10       29.90F
CLINTONVILLE   PTSUNNY   73  63  68 E7        29.91F
OSHKOSH        CLOUDY    75  64  68 E13       29.89F
$$

WIZ032>034-041-042-053>061-170000-
SOUTHWEST WISCONSIN

CITY           SKY/WX    TMP DP  RH WIND       PRES   REMARKS
LA CROSSE      CLOUDY    83  69  62 E9        29.75F HX  86
SPARTA         PTSUNNY   78  68  70 E10G18    29.80F HX  80
VIROQUA        CLOUDY    72  72 100 SE10      29.81F
BOSCOBEL       PTSUNNY   78  72  81 VRB3      29.79F HX  80
PRAIRIE DU CHI LGT RAIN  76  69  77 E10G17    29.76F
PLATTEVILLE    PTSUNNY   75  74  97 E13       29.82F
$$

WIZ056-057-062-063-064-067-068-170000-
SOUTH CENTRAL WISCONSIN

CITY           SKY/WX    TMP DP  RH WIND       PRES   REMARKS
REEDSBURG      CLOUDY    78  70  74 E7        29.81F HX  81
BARABOO/DELLS  CLOUDY    79  66  65 E9        29.82F HX  81
LONE ROCK      RAIN      76  75  97 SE8G17    29.80F FOG
MINERAL POINT  CLOUDY    75  73  94 SE13      29.83F
MADISON        RAIN      77  72  84 SE14      29.82F
MIDDLETON      CLOUDY    76  73  90 S7        29.83F
WATERTOWN      MOSUNNY   76  68  76 E10       29.86F
MONROE         LGT RAIN  70  70 100 SE8       29.83F
JANESVILLE     DRIZZLE   73  73 100 E7        29.86R
$$

WIZ051-052-058>065-066-070>072-170000-
SOUTHEAST WISCONSIN

CITY           SKY/WX    TMP DP  RH WIND       PRES   REMARKS
MILWAUKEE      PTSUNNY   74  68  81 NE9       29.89F
WAUKESHA       SUNNY     73  63  68 E12       29.90F
MILWAUKEE/TIMM SUNNY     73  63  68 E9        29.91F
RACINE         MOSUNNY   74  68  81 E8        29.91F
KENOSHA        LGT RAIN  74  68  81 E9        29.90F
FOND DU LAC    MOSUNNY   76  61  59 E10       29.89F
SHEBOYGAN      PTSUNNY   71  65  81 E8        29.92F
WEST BEND      MOSUNNY   72  63  73 E8        29.91F
JUNEAU         CLOUDY    74  65  72 E8        29.88F
$$

LSZ147-162-170000-
LAKE SUPERIOR

STATION/POSITION TIME  TEMP    WIND        PRES    WAVE
                       AIR SEA DIR/SP/G            HT/PER
                 (UTC) (F)     (DEG/KT/KT) (MB)    (FT/S)
W MID LAKE BUOY  2250   63 61   50/ 12/ 16 1012.8F   1/ 3
DEVILS ISLAND    2300   62      60/ 18/ 20 1012.5F
SAXON HARBOR     2240   68      60/ 10/ 13 1011.5F
$$

LMZ867-665-643>646-170000-
LAKE MICHIGAN

STATION/POSITION TIME  TEMP    WIND        PRES    WAVE
                       AIR SEA DIR/SP/G            HT/PER
                 (UTC) (F)     (DEG/KT/KT) (MB)    (FT/S)
S GREEN BAY BUOY 2300   71 72   60/ 10/ 12 1013.8
N MID LAKE BUOY  2250   68 69   60/  8/  8 1014.7F   1
NORTHPORT PIER   2240   69      80/  6/  7 1014.2F
KEWAUNEE LAKESHO 2242   70      50/  3/  6 1013.8R
SHEBOYGAN LAKESH 2300   69      50/  8/  9 1012.8F
PORT WASHINGTON  2240   73      50/  8/ 11 1013.9F
ATWATER BUOY     2209   72 72   60/  8/ 10 1013.2
MILWAUKEE LAKESH 2250   71      50/ 10/ 11   N/A
S MID LAKE BUOY  2250   74 73   60/  8/ 10 1012.4F   1
KENOSHA   LAKESH 2300   74      CALM  /  4 1011.9
$$

TC  - TEMPERATURE IN CELSIUS
VSB - VISIBILITY IN STATUTE MILES
WCI - WIND CHILL INDEX
HX  - HEAT INDEX





USA.gov is the U.S. government's official web portal to all federal, state and local government web resources and services.